| time (UTC) | temp F | wind direction | speed knots | gust knots | rain 1hr in | rain 24hr in | rain mn in | humidity % | barometer mb |
| 20260504081933 | 58 | 89 | 1.7 | 1.7 | 0.00 | 0.17 | 0.17 | 97 | 994.3 |
| 20260504081430 | 58 | 96 | 0.9 | 0.9 | 0.00 | 0.17 | 0.17 | 97 | 994.1 |
| 20260504080926 | 58 | 89 | 0.9 | 0.9 | 0.00 | 0.17 | 0.17 | 97 | 993.8 |
| 20260504080423 | 58 | 88 | 0.9 | 1.7 | 0.00 | 0.17 | 0.17 | 97 | 993.9 |
| 20260504070351 | 58 | 49 | 0.0 | 0.0 | 0.00 | 0.17 | 0.17 | 97 | 995.3 |
| 20260504050738 | 62 | 64 | 0.0 | 0.9 | 0.00 | 0.00 | 0.00 | 70 | 993.6 |
| 20260504050235 | 62 | 68 | 0.0 | 0.0 | 0.00 | 0.00 | 0.00 | 69 | 993.5 |
| 20260504045732 | 63 | 85 | 0.0 | 0.9 | 0.00 | 0.00 | 0.00 | 69 | 993.3 |
| 20260504045227 | 63 | 100 | 0.9 | 0.9 | 0.00 | 0.00 | 0.00 | 68 | 993.4 |
| 20260504044725 | 62 | 138 | 1.7 | 2.6 | 0.00 | 0.00 | 0.00 | 68 | 993.5 |
| 20260504044222 | 63 | 60 | 0.0 | 0.0 | 0.00 | 0.00 | 0.00 | 68 | 993.6 |
| 20260504043720 | 63 | 102 | 0.0 | 0.0 | 0.00 | 0.00 | 0.00 | 69 | 994.0 |
| 20260504043216 | 63 | 108 | 0.9 | 0.9 | 0.00 | 0.00 | 0.00 | 68 | 994.1 |
| 20260504042714 | 63 | 104 | 0.9 | 0.9 | 0.00 | 0.00 | 0.00 | 68 | 994.4 |
| 20260504042210 | 63 | 88 | 0.0 | 0.9 | 0.00 | 0.00 | 0.00 | 67 | 994.2 |
| 20260504041706 | 63 | 83 | 0.9 | 1.7 | 0.00 | 0.00 | 0.00 | 68 | 994.3 |
| 20260504041202 | 63 | 78 | 0.9 | 0.9 | 0.00 | 0.00 | 0.00 | 67 | 994.7 |
| 20260504040659 | 64 | 249 | 1.7 | 1.7 | 0.00 | 0.00 | 0.00 | 66 | 994.5 |
| 20260504040156 | 64 | 116 | 0.0 | 0.9 | 0.00 | 0.00 | 0.00 | 66 | 994.4 |
| 20260504035652 | 64 | 335 | 0.0 | 0.9 | 0.00 | 0.00 | 0.00 | 65 | 994.4 |
| 20260504035150 | 64 | 64 | 0.9 | 1.7 | 0.00 | 0.00 | 0.00 | 66 | 994.4 |
| 20260504034647 | 64 | 49 | 0.0 | 0.9 | 0.00 | 0.00 | 0.00 | 66 | 994.7 |
| 20260504034144 | 64 | 91 | 0.9 | 1.7 | 0.00 | 0.00 | 0.00 | 65 | 994.4 |
| 20260504033642 | 64 | 224 | 1.7 | 2.6 | 0.00 | 0.00 | 0.00 | 65 | 994.6 |
| 20260504033139 | 64 | 71 | 0.0 | 0.0 | 0.00 | 0.00 | 0.00 | 66 | 994.5 |
| 20260504032635 | 64 | 209 | 1.7 | 2.6 | 0.00 | 0.00 | 0.00 | 65 | 994.7 |
| 20260504032133 | 64 | 117 | 0.9 | 0.9 | 0.00 | 0.00 | 0.00 | 65 | 994.7 |
| 20260504031630 | 64 | 273 | 1.7 | 2.6 | 0.00 | 0.00 | 0.00 | 65 | 994.7 |
| 20260504031126 | 64 | 255 | 0.9 | 1.7 | 0.00 | 0.00 | 0.00 | 66 | 994.6 |
| 20260504030623 | 64 | 354 | 0.0 | 0.9 | 0.00 | 0.00 | 0.00 | 66 | 994.7 |
| 20260504030120 | 64 | 231 | 1.7 | 1.7 | 0.00 | 0.00 | 0.00 | 65 | 994.5 |
| 20260504025616 | 64 | 228 | 1.7 | 1.7 | 0.00 | 0.00 | 0.00 | 66 | 994.6 |
| 20260504025113 | 63 | 145 | 0.9 | 1.7 | 0.00 | 0.00 | 0.00 | 66 | 994.6 |
| 20260504024611 | 63 | 8 | 0.9 | 0.9 | 0.00 | 0.00 | 0.00 | 67 | 994.5 |
| 20260504024107 | 64 | 69 | 0.0 | 0.0 | 0.00 | 0.00 | 0.00 | 67 | 994.6 |
| 20260504023604 | 64 | 80 | 0.9 | 0.9 | 0.00 | 0.00 | 0.00 | 65 | 994.3 |
| 20260504023059 | 64 | 113 | 1.7 | 2.6 | 0.00 | 0.00 | 0.00 | 64 | 994.4 |
| 20260504022556 | 65 | 108 | 1.7 | 1.7 | 0.00 | 0.00 | 0.00 | 63 | 994.5 |
| 20260504022052 | 65 | 146 | 1.7 | 2.6 | 0.00 | 0.00 | 0.00 | 62 | 994.4 |
| 20260504021550 | 65 | 68 | 1.7 | 1.7 | 0.00 | 0.00 | 0.00 | 62 | 994.4 |
| 20260504021046 | 65 | 172 | 2.6 | 2.6 | 0.00 | 0.00 | 0.00 | 61 | 994.7 |
| 20260504020543 | 65 | 139 | 1.7 | 1.7 | 0.00 | 0.00 | 0.00 | 61 | 994.4 |
| 20260504020040 | 66 | 132 | 1.7 | 1.7 | 0.00 | 0.00 | 0.00 | 61 | 994.5 |
| 20260504015537 | 66 | 103 | 2.6 | 2.6 | 0.00 | 0.00 | 0.00 | 61 | 994.4 |
| 20260504015032 | 66 | 158 | 0.0 | 1.7 | 0.00 | 0.00 | 0.00 | 62 | 994.5 |
| 20260504014529 | 66 | 174 | 0.0 | 0.9 | 0.00 | 0.00 | 0.00 | 61 | 994.5 |
| 20260504014026 | 66 | 69 | 0.0 | 0.9 | 0.00 | 0.00 | 0.00 | 61 | 994.5 |
| 20260504013524 | 66 | 103 | 1.7 | 1.7 | 0.00 | 0.00 | 0.00 | 59 | 994.6 |
| 20260504013020 | 67 | 180 | 1.7 | 2.6 | 0.00 | 0.00 | 0.00 | 59 | 994.2 |
| 20260504012518 | 67 | 177 | 2.6 | 2.6 | 0.00 | 0.00 | 0.00 | 58 | 994.3 |
| 20260504012016 | 67 | 159 | 2.6 | 2.6 | 0.00 | 0.00 | 0.00 | 59 | 994.1 |
| 20260504011512 | 67 | 170 | 0.9 | 1.7 | 0.00 | 0.00 | 0.00 | 58 | 994.3 |
| 20260504011008 | 67 | 72 | 0.9 | 1.7 | 0.00 | 0.00 | 0.00 | 59 | 994.4 |
| 20260504010504 | 67 | 173 | 1.7 | 1.7 | 0.00 | 0.00 | 0.00 | 59 | 994.3 |
| 20260504010000 | 67 | 83 | 0.0 | 0.0 | 0.00 | 0.00 | 0.00 | 60 | 994.3 |
| 20260504005457 | 67 | 74 | 0.0 | 0.9 | 0.00 | 0.00 | 0.00 | 59 | 994.4 |
| 20260504004954 | 68 | 138 | 1.7 | 1.7 | 0.00 | 0.00 | 0.00 | 56 | 994.4 |
| 20260504004452 | 69 | 75 | 0.0 | 0.0 | 0.00 | 0.00 | 0.00 | 54 | 994.3 |
| 20260504003949 | 69 | 38 | 2.6 | 2.6 | 0.00 | 0.00 | 0.00 | 53 | 994.3 |
| 20260504003445 | 69 | 302 | 1.7 | 1.7 | 0.00 | 0.00 | 0.00 | 53 | 994.5 |
| 20260504002942 | 69 | 77 | 1.7 | 2.6 | 0.00 | 0.00 | 0.00 | 52 | 994.3 |
| 20260504002439 | 69 | 72 | 0.9 | 1.7 | 0.00 | 0.00 | 0.00 | 52 | 994.5 |
| 20260504001936 | 69 | 86 | 0.0 | 0.0 | 0.00 | 0.00 | 0.00 | 52 | 994.7 |
| 20260504001433 | 70 | 126 | 0.9 | 0.9 | 0.00 | 0.00 | 0.00 | 52 | 994.5 |
| 20260504000930 | 70 | 228 | 2.6 | 2.6 | 0.00 | 0.00 | 0.00 | 51 | 994.7 |
| 20260504000427 | 70 | 108 | 0.9 | 0.9 | 0.00 | 0.00 | 0.00 | 50 | 994.6 |
| 20260503235924 | 71 | 109 | 0.9 | 1.7 | 0.00 | 0.00 | 0.00 | 50 | 994.7 |
| 20260503235422 | 71 | 23 | 2.6 | 4.3 | 0.00 | 0.00 | 0.00 | 50 | 994.4 |
| 20260503234919 | 71 | 167 | 2.6 | 2.6 | 0.00 | 0.00 | 0.00 | 49 | 994.4 |
| 20260503234417 | 72 | 75 | 0.9 | 1.7 | 0.00 | 0.00 | 0.00 | 48 | 994.7 |
| 20260503233915 | 72 | 201 | 0.9 | 2.6 | 0.00 | 0.00 | 0.00 | 48 | 994.9 |
| 20260503233411 | 73 | 130 | 0.9 | 0.9 | 0.00 | 0.00 | 0.00 | 48 | 994.9 |
| 20260503232908 | 73 | 113 | 1.7 | 1.7 | 0.00 | 0.00 | 0.00 | 47 | 995.0 |
| 20260503232405 | 73 | 170 | 1.7 | 4.3 | 0.00 | 0.00 | 0.00 | 46 | 994.8 |
| 20260503231902 | 73 | 155 | 1.7 | 2.6 | 0.00 | 0.00 | 0.00 | 45 | 995.2 |
| 20260503231400 | 73 | 83 | 0.9 | 1.7 | 0.00 | 0.00 | 0.00 | 46 | 995.1 |
| 20260503230855 | 73 | 109 | 0.9 | 0.9 | 0.00 | 0.00 | 0.00 | 47 | 995.1 |
| 20260503230352 | 73 | 79 | 3.5 | 5.2 | 0.00 | 0.00 | 0.00 | 45 | 995.0 |
| 20260503225850 | 73 | 109 | 2.6 | 4.3 | 0.00 | 0.00 | 0.00 | 45 | 995.0 |
| 20260503225346 | 73 | 293 | 1.7 | 2.6 | 0.00 | 0.00 | 0.00 | 44 | 995.2 |
| 20260503224842 | 73 | 58 | 0.9 | 1.7 | 0.00 | 0.00 | 0.00 | 46 | 995.4 |
| 20260503224339 | 73 | 185 | 0.9 | 1.7 | 0.00 | 0.00 | 0.00 | 44 | 995.2 |
| 20260503223837 | 73 | 264 | 0.9 | 1.7 | 0.00 | 0.00 | 0.00 | 45 | 995.3 |
| 20260503223335 | 73 | 115 | 3.5 | 6.1 | 0.00 | 0.00 | 0.00 | 43 | 995.6 |
| 20260503222830 | 74 | 165 | 2.6 | 4.3 | 0.00 | 0.00 | 0.00 | 45 | 995.3 |
| 20260503222329 | 73 | 97 | 1.7 | 1.7 | 0.00 | 0.00 | 0.00 | 44 | 995.3 |
| 20260503221826 | 73 | 170 | 1.7 | 2.6 | 0.00 | 0.00 | 0.00 | 45 | 995.4 |
| 20260503221325 | 73 | 287 | 3.5 | 5.2 | 0.00 | 0.00 | 0.00 | 43 | 995.3 |
| 20260503220821 | 73 | 166 | 1.7 | 4.3 | 0.00 | 0.00 | 0.00 | 44 | 995.2 |
| 20260503220318 | 73 | 259 | 2.6 | 4.3 | 0.00 | 0.00 | 0.00 | 44 | 995.3 |
| 20260503215814 | 73 | 118 | 1.7 | 2.6 | 0.00 | 0.00 | 0.00 | 43 | 995.2 |
| 20260503215312 | 73 | 70 | 2.6 | 2.6 | 0.00 | 0.00 | 0.00 | 43 | 995.6 |
| 20260503214810 | 73 | 239 | 2.6 | 5.2 | 0.00 | 0.00 | 0.00 | 43 | 995.6 |
| 20260503214306 | 73 | 309 | 3.5 | 5.2 | 0.00 | 0.00 | 0.00 | 44 | 995.7 |
| 20260503213804 | 73 | 236 | 2.6 | 2.6 | 0.00 | 0.00 | 0.00 | 43 | 995.8 |
| 20260503213301 | 73 | 181 | 7.0 | 9.6 | 0.00 | 0.00 | 0.00 | 41 | 995.8 |
| 20260503212758 | 73 | 87 | 2.6 | 4.3 | 0.00 | 0.00 | 0.00 | 48 | 995.5 |
| 20260503212256 | 73 | 299 | 4.3 | 5.2 | 0.00 | 0.00 | 0.00 | 43 | 995.8 |
| 20260503211753 | 73 | 206 | 2.6 | 4.3 | 0.00 | 0.00 | 0.00 | 42 | 995.6 |
| 20260503211249 | 73 | 263 | 2.6 | 4.3 | 0.00 | 0.00 | 0.00 | 43 | 995.8 |
| 20260503210744 | 73 | 180 | 0.9 | 1.7 | 0.00 | 0.00 | 0.00 | 43 | 995.6 |
| 20260503210242 | 73 | 223 | 2.6 | 2.6 | 0.00 | 0.00 | 0.00 | 43 | 996.0 |
| 20260503205742 | 73 | 181 | 1.7 | 5.2 | 0.00 | 0.00 | 0.00 | 43 | 996.0 |
| 20260503205239 | 73 | 61 | 3.5 | 6.1 | 0.00 | 0.00 | 0.00 | 43 | 996.0 |
| 20260503204736 | 72 | 191 | 2.6 | 2.6 | 0.00 | 0.00 | 0.00 | 44 | 996.4 |
| 20260503204233 | 72 | 294 | 2.6 | 2.6 | 0.00 | 0.00 | 0.00 | 44 | 996.5 |
| 20260503203731 | 72 | 223 | 3.5 | 5.2 | 0.00 | 0.00 | 0.00 | 43 | 996.7 |
| 20260503203228 | 72 | 187 | 1.7 | 1.7 | 0.00 | 0.00 | 0.00 | 46 | 996.7 |
| 20260503202725 | 72 | 5 | 1.7 | 4.3 | 0.00 | 0.00 | 0.00 | 45 | 996.9 |
| 20260503202223 | 72 | 253 | 3.5 | 5.2 | 0.00 | 0.00 | 0.00 | 44 | 996.9 |
| 20260503201721 | 72 | 275 | 2.6 | 5.2 | 0.00 | 0.00 | 0.00 | 45 | 997.1 |
| 20260503201218 | 71 | 81 | 3.5 | 7.0 | 0.00 | 0.00 | 0.00 | 45 | 997.2 |
| 20260503200714 | 71 | 213 | 1.7 | 2.6 | 0.00 | 0.00 | 0.00 | 45 | 997.2 |
| 20260503200211 | 71 | 274 | 4.3 | 7.0 | 0.00 | 0.00 | 0.00 | 44 | 997.5 |
| 20260503195707 | 71 | 296 | 4.3 | 5.2 | 0.00 | 0.00 | 0.00 | 45 | 997.7 |
| 20260503195204 | 71 | 234 | 2.6 | 2.6 | 0.00 | 0.00 | 0.00 | 47 | 998.0 |
| 20260503194701 | 71 | 241 | 4.3 | 6.1 | 0.00 | 0.00 | 0.00 | 45 | 998.2 |
| 20260503194157 | 71 | 291 | 3.5 | 5.2 | 0.00 | 0.00 | 0.00 | 48 | 998.3 |
| 20260503193654 | 70 | 248 | 2.6 | 2.6 | 0.00 | 0.00 | 0.00 | 46 | 998.2 |
| 20260503193149 | 70 | 227 | 3.5 | 4.3 | 0.00 | 0.00 | 0.00 | 47 | 998.3 |
| 20260503192645 | 69 | 187 | 2.6 | 4.3 | 0.00 | 0.00 | 0.00 | 49 | 998.4 |
| 20260503192141 | 70 | 267 | 5.2 | 7.8 | 0.00 | 0.00 | 0.00 | 47 | 998.8 |
| 20260503191638 | 70 | 167 | 2.6 | 4.3 | 0.00 | 0.00 | 0.00 | 47 | 998.8 |
| 20260503191135 | 69 | 78 | 2.6 | 4.3 | 0.00 | 0.00 | 0.00 | 47 | 998.7 |
| 20260503190632 | 69 | 257 | 4.3 | 6.1 | 0.00 | 0.00 | 0.00 | 49 | 998.7 |
| 20260503190128 | 69 | 103 | 6.1 | 8.7 | 0.00 | 0.00 | 0.00 | 47 | 998.8 |
| 20260503185625 | 69 | 193 | 3.5 | 4.3 | 0.00 | 0.00 | 0.00 | 46 | 999.1 |
| 20260503185120 | 68 | 221 | 1.7 | 2.6 | 0.00 | 0.00 | 0.00 | 49 | 999.2 |
| 20260503184615 | 69 | 132 | 3.5 | 5.2 | 0.00 | 0.00 | 0.00 | 48 | 999.5 |
| 20260503184112 | 70 | 353 | 4.3 | 7.0 | 0.00 | 0.00 | 0.00 | 46 | 999.6 |
| 20260503183609 | 69 | 82 | 4.3 | 6.1 | 0.00 | 0.00 | 0.00 | 46 | 999.9 |
| 20260503183106 | 69 | 252 | 4.3 | 6.1 | 0.00 | 0.00 | 0.00 | 50 | 999.8 |
| 20260503182605 | 68 | 237 | 3.5 | 5.2 | 0.00 | 0.00 | 0.00 | 51 | 1000.1 |
| 20260503182102 | 68 | 191 | 4.3 | 7.0 | 0.00 | 0.00 | 0.00 | 47 | 1000.3 |
| 20260503181559 | 68 | 25 | 2.6 | 2.6 | 0.00 | 0.00 | 0.00 | 50 | 1000.4 |
| 20260503181055 | 68 | 177 | 2.6 | 2.6 | 0.00 | 0.00 | 0.00 | 49 | 1000.1 |
| 20260503180553 | 67 | 233 | 2.6 | 4.3 | 0.00 | 0.00 | 0.00 | 49 | 1000.3 |
| 20260503180050 | 68 | 248 | 4.3 | 5.2 | 0.00 | 0.00 | 0.00 | 49 | 1000.6 |
| 20260503175547 | 68 | 259 | 3.5 | 5.2 | 0.00 | 0.00 | 0.00 | 50 | 1000.4 |
| 20260503175045 | 67 | 146 | 5.2 | 7.0 | 0.00 | 0.00 | 0.00 | 50 | 1000.5 |
| 20260503174542 | 66 | 233 | 2.6 | 2.6 | 0.00 | 0.00 | 0.00 | 49 | 1000.7 |
| 20260503174038 | 67 | 254 | 2.6 | 4.3 | 0.00 | 0.00 | 0.00 | 50 | 1000.8 |
| 20260503173533 | 67 | 58 | 2.6 | 4.3 | 0.00 | 0.00 | 0.00 | 51 | 1000.8 |
| 20260503173029 | 66 | 242 | 4.3 | 6.1 | 0.00 | 0.00 | 0.00 | 52 | 1000.9 |
| 20260503172527 | 66 | 275 | 4.3 | 6.1 | 0.00 | 0.00 | 0.00 | 52 | 1001.5 |
| 20260503172024 | 66 | 235 | 5.2 | 6.1 | 0.00 | 0.00 | 0.00 | 52 | 1001.7 |
| 20260503171521 | 66 | 261 | 0.9 | 2.6 | 0.00 | 0.00 | 0.00 | 55 | 1001.5 |
| 20260503171018 | 66 | 56 | 1.7 | 4.3 | 0.00 | 0.00 | 0.00 | 54 | 1001.6 |
| 20260503170514 | 65 | 135 | 2.6 | 4.3 | 0.00 | 0.00 | 0.00 | 55 | 1001.7 |
| 20260503150906 | 60 | 241 | 1.7 | 1.7 | 0.00 | 0.00 | 0.00 | 62 | 1003.7 |
| 20260503150403 | 60 | 209 | 2.6 | 2.6 | 0.00 | 0.00 | 0.00 | 64 | 1003.5 |
| 20260503131256 | 52 | 323 | 2.6 | 4.3 | 0.00 | 0.00 | 0.00 | 75 | 1004.2 |
| 20260503130754 | 52 | 101 | 2.6 | 2.6 | 0.00 | 0.00 | 0.00 | 75 | 1004.4 |
| 20260503130251 | 52 | 117 | 0.0 | 0.9 | 0.00 | 0.00 | 0.00 | 77 | 1004.3 |
| 20260503120217 | 48 | 238 | 0.9 | 1.7 | 0.00 | 0.00 | 0.00 | 84 | 1003.8 |
| 20260503110644 | 47 | 153 | 0.9 | 0.9 | 0.00 | 0.00 | 0.00 | 86 | 1003.3 |
| 20260503110142 | 47 | 119 | 0.9 | 0.9 | 0.00 | 0.00 | 0.00 | 86 | 1003.3 |
| 20260503100109 | 47 | 135 | 0.0 | 0.9 | 0.00 | 0.00 | 0.00 | 88 | 1003.5 |